Content
SEND FEEDBACK

Daily
Averages
Monthly
Summary
United States of America

SAN RAFAEL, CALIFORNIA


Home > North America > United States > California
Elevation: 30 feet     Latitude: 37 58N     Longitude: 122 32W

WEATHER
 
SELECT A DAY
Number of Records: 166,296;   Date Range: 9/27/07 - 8/29/14
 
SHARE

PRINT THIS DATA

[ ← Previous Day ]
WEATHER ALMANAC - APRIL 20, 2013
[ Next Day → ]
[ °C ]   °F
Weather ElementAverageHighLow
Temperature63.7 °F78.8 °F (2:15 pm)48.2 °F (10:15 pm)
Dewpoint44.4 °F51.8 °F (3:15 pm)39.2 °F (5:15 am)
Humidity52.2 %100 % (10:15 pm)29 % (1:15 pm)
Barometer30.07 in30.12 in (4:35 am)30.00 in (4:55 pm)
Wind Speed7.7 mph18.4 mph (1:15 am)
Wind Gust25.3 mph (1:15 am)
Weather ElementAverage
Visibility9.9 mi
Wind DirectionWSW (241.3 °)

Weather ElementTotal
Precipitation---
Heating Degree Days1.5 (Base 65)
Growing Degree Days13.5 (Base 50)
Averaged from 69 records on April 20, 2013
WEATHER CONDITIONS BREAKOUT
WIND DIRECTION BREAKOUT
WEATHER BY HOUR - APRIL 20, 2013
[ °C ]   °F
Local TimeTemperatureDewpointHumidityBarometerVisibilityWind DirectionWind SpeedGust SpeedPrecipitationEventsConditions
12:35 AM62.6 °F44.6 °F52 %30.09 inNNW (330°)17.3 mphClear
12:55 AM60.8 °F44.6 °F55 %30.09 inNNW (330°)15.0 mph23.0 mphClear
1:15 AM60.8 °F44.6 °F55 %30.10 inNNW (330°)18.4 mph25.3 mphClear
1:35 AM60.8 °F44.6 °F55 %30.10 inNNW (330°)13.8 mph24.2 mphClear
1:55 AM60.8 °F42.8 °F52 %30.10 inNW (320°)16.1 mph23.0 mphClear
2:15 AM60.8 °F42.8 °F52 %30.10 inNNW (330°)12.7 mph23.0 mphClear
2:35 AM59.0 °F42.8 °F55 %30.10 inNNW (340°)11.5 mphClear
2:55 AM59.0 °F42.8 °F55 %30.11 inNNW (330°)13.8 mph19.6 mphClear
3:15 AM59.0 °F42.8 °F55 %30.11 inNNW (340°)11.5 mph19.6 mphClear
3:35 AM59.0 °F41.0 °F51 %30.11 inNW (320°)13.8 mph18.4 mphClear
3:55 AM59.0 °F41.0 °F51 %30.11 inWNW (290°)13.8 mph19.6 mphClear
4:15 AM59.0 °F41.0 °F51 %30.11 inNW (320°)10.4 mph18.4 mphClear
4:35 AM59.0 °F41.0 °F51 %30.12 inNNW (330°)12.7 mphClear
4:55 AM59.0 °F41.0 °F51 %30.12 inNNW (330°)9.2 mphClear
5:15 AM59.0 °F39.2 °F48 %30.12 inNW (320°)13.8 mphClear
5:35 AM57.2 °F41.0 °F55 %30.11 inNNW (330°)12.7 mph16.1 mphClear
5:55 AM57.2 °F41.0 °F55 %30.11 inNNW (340°)12.7 mphClear
6:15 AM55.4 °F41.0 °F58 %30.12 inNW (320°)5.8 mphClear
6:35 AM53.6 °F41.0 °F62 %30.12 in10.0 miNNW (340°)5.8 mphClear
6:55 AM53.6 °F41.0 °F62 %30.12 in10.0 miNW (310°)4.6 mphClear
7:15 AM55.4 °F42.8 °F63 %30.12 in10.0 miNNW (340°)9.2 mphClear
7:35 AM55.4 °F41.0 °F58 %30.12 in10.0 miCalmClear
7:55 AM57.2 °F42.8 °F59 %30.12 in10.0 miWNW (290°)6.9 mphClear
8:15 AM59.0 °F42.8 °F55 %30.12 in10.0 miNNW (330°)6.9 mphClear
8:35 AM60.8 °F41.0 °F48 %30.12 in10.0 miNNW (330°)11.5 mph16.1 mphClear
8:55 AM60.8 °F42.8 °F52 %30.12 in10.0 miNNW (340°)11.5 mphClear
9:15 AM62.6 °F42.8 °F48 %30.12 in10.0 miNNW (340°)12.7 mphClear
9:35 AM62.6 °F42.8 °F48 %30.11 in10.0 miNorth (350°)12.7 mphClear
9:55 AM64.4 °F44.6 °F49 %30.11 in10.0 miNorth (10°)9.2 mphClear
10:15 AM66.2 °F44.6 °F46 %30.10 in10.0 miNorth (10°)10.4 mphClear
10:35 AM66.2 °F44.6 °F46 %30.10 in10.0 miNorth (10°)9.2 mphClear
10:55 AM68.0 °F44.6 °F43 %30.10 in10.0 miNorth (350°)8.1 mphClear
11:15 AM69.8 °F44.6 °F40 %30.09 in10.0 miNorth (350°)4.6 mphClear
11:35 AM71.6 °F41.0 °F33 %30.09 inCalmClear
11:55 AM73.4 °F41.0 °F31 %30.09 inNNE (20°)3.5 mphClear
12:15 PM73.4 °F42.8 °F33 %30.08 inNNW (330°)4.6 mphClear
12:35 PM73.4 °F41.0 °F31 %30.07 inCalmClear
12:55 PM75.2 °F42.8 °F31 %30.06 inNorth (350°)5.8 mphClear
1:15 PM75.2 °F41.0 °F29 %30.05 inNorth (350°)5.8 mphClear
1:35 PM77.0 °F42.8 °F29 %30.04 inNorth (10°)4.6 mphClear
1:55 PM77.0 °F42.8 °F29 %30.04 inNorth (10°)5.8 mphClear
2:15 PM78.8 °F50.0 °F36 %30.03 inWest (280°)5.8 mphClear
2:35 PM77.0 °F50.0 °F39 %30.03 inWest (280°)9.2 mphClear
2:55 PM77.0 °F50.0 °F39 %30.03 inNW (310°)5.8 mph16.1 mphClear
3:15 PM77.0 °F51.8 °F41 %30.02 inNNW (340°)11.5 mphClear
3:35 PM77.0 °F48.2 °F36 %30.02 inNW (320°)5.8 mphClear
3:55 PM77.0 °F50.0 °F39 %30.02 inWNW (300°)5.8 mphClear
4:15 PM77.0 °F50.0 °F39 %30.01 in9.0 miNNW (340°)9.2 mphClear
4:35 PM75.2 °F48.2 °F38 %30.01 in10.0 miNNW (340°)8.1 mphClear
4:55 PM75.2 °F48.2 °F38 %30.00 in10.0 miNNW (340°)9.2 mphClear
5:15 PM73.4 °F44.6 °F36 %30.01 in10.0 miSW (220°)4.6 mphClear
5:35 PM73.4 °F44.6 °F36 %30.00 in10.0 miSW (230°)8.1 mphClear
5:55 PM73.4 °F46.4 °F38 %30.00 in10.0 miEast (90°)4.6 mphClear
6:15 PM71.6 °F44.6 °F38 %30.00 in10.0 miSSW (210°)5.8 mphClear
6:35 PM71.6 °F46.4 °F41 %30.00 in10.0 miCalmClear
6:55 PM68.0 °F46.4 °F46 %30.00 in10.0 miSSW (200°)5.8 mphClear
7:15 PM66.2 °F46.4 °F49 %30.00 in10.0 miSSW (210°)5.8 mphClear
7:55 PM60.8 °F46.4 °F59 %30.01 in10.0 miESE (120°)3.5 mphClear
8:15 PM59.0 °F46.4 °F63 %30.01 in10.0 miEast (90°)4.6 mphClear
8:35 PM57.2 °F44.6 °F63 %30.01 in10.0 miENE (60°)4.6 mphClear
8:55 PM53.6 °F46.4 °F77 %30.02 in10.0 miNNW (340°)5.8 mphClear
9:15 PM53.6 °F46.4 °F77 %30.02 in10.0 miNorth (350°)4.6 mphClear
9:35 PM50.0 °F46.4 °F87 %30.03 in10.0 miCalmClear
9:55 PM50.0 °F48.2 °F94 %30.03 in10.0 miNNE (30°)4.6 mphClear
10:15 PM48.2 °F48.2 °F100 %30.03 in9.0 miNorth (350°)4.6 mphClear
10:35 PM50.0 °F48.2 °F94 %30.03 in10.0 miNW (320°)3.5 mphClear
10:55 PM50.0 °F48.2 °F94 %30.03 in10.0 miNNW (330°)3.5 mphClear
11:15 PM50.0 °F46.4 °F87 %30.04 in10.0 miCalmClear
11:35 PM48.2 °F46.4 °F93 %30.04 in10.0 miCalmClear
Hourly data recorded from KDVO, located miles away from San Rafael, California







STORIES FROM OUR PARTNERS